Weather History for KOGB - February, 2014

Change the Weather History Date:

Sunday, February 9, 2014

  Actual Average Record
Temperature  
Mean Temperature 50 °F 48 °F  
Max Temperature 65 °F 60 °F - ()
Min Temperature 34 °F 37 °F - ()
Degree Days  
Heating Degree Days 15 17  
Month to date heating degree days 135 156  
Since 1 July heating degree days 1632 1653  
Cooling Degree Days 0 0  
Month to date cooling degree days 0 0  
Year to date cooling degree days 0 1  
Moisture  
Dew Point 37 °F    
Average Humidity 80    
Maximum Humidity 100    
Minimum Humidity 40    
Precipitation  
Precipitation 0.00 in 0.11 in - ()
Month to date precipitation 0.69 0.90  
Year to date precipitation 2.85 4.88  
Sea Level Pressure  
Sea Level Pressure 30.12 in    
Wind  
Wind Speed 4 mph (SW)    
Max Wind Speed 16 mph    
Max Gust Speed 21 mph    
Visibility 6 miles    
Events Fog    
T = Trace of Precipitation, MM = Missing Value Source: NWS Daily Summary

Daily Weather History Graph

Daily Weather History Graph

Search for Another Location

Airport or City:

Trip Planner

Search our weather history database for the weather conditions in past years. The results will help you decide how hot, cold, wet, or windy it might be!

Date:

Astronomy

Feb. 09, 2014 Rise Set
Actual Time 7:13 AM EST 6:02 PM EST
Civil Twilight 6:47 AM EST 6:28 PM EST
Nautical Twilight 6:18 AM EST 6:57 PM EST
Astronomical Twilight 5:49 AM EST 7:26 PM EST
Moon 1:46 PM EST (2/9) 3:12 AM EST (2/9)
Length of Visible Light 11h 40m
Length of Day
10h 49m
Waxing Gibbous, 77% of the Moon is Illuminated
Feb 9
Waxing Gibbous
Feb 14
Full
Feb 22
Last Quarter
Mar 1
New
Mar 8
First Quarter

Hourly Weather History & Observations

Time (EST) Temp. Windchill Dew Point Humidity Pressure Visibility Wind Dir Wind Speed Gust Speed Precip Events Conditions
12:53 AM 37.0 °F - 35.1 °F 93% 30.17 in 4.0 mi Calm Calm - N/A   Clear
1:53 AM 35.1 °F - 33.1 °F 92% 30.16 in 5.0 mi Calm Calm - N/A   Clear
2:53 AM 34.0 °F - 32.0 °F 92% 30.14 in 4.0 mi Calm Calm - N/A   Clear
3:29 AM 34.0 °F - 30.9 °F 89% 30.13 in 5.0 mi Calm Calm - N/A   Scattered Clouds
3:38 AM 34.0 °F - 32.0 °F 92% 30.13 in 5.0 mi Calm Calm - N/A   Mostly Cloudy
3:53 AM 35.1 °F - 33.1 °F 92% 30.14 in 5.0 mi Calm Calm - N/A   Overcast
4:03 AM 35.1 °F - 33.1 °F 92% 30.13 in 1.0 mi Calm Calm - N/A   Mist
4:10 AM 35.1 °F - 33.1 °F 92% 30.13 in 0.2 mi Calm Calm - N/A Fog Fog
4:53 AM 36.0 °F - 35.1 °F 97% 30.13 in 0.2 mi Calm Calm - N/A Fog Fog
5:53 AM 35.1 °F - 34.0 °F 96% 30.14 in 0.5 mi Calm Calm - N/A Fog Fog
6:53 AM 35.1 °F - 33.1 °F 92% 30.16 in 0.2 mi Calm Calm - N/A Fog Fog
7:19 AM 34.0 °F - 33.1 °F 96% 30.16 in 1.8 mi Calm Calm - N/A   Mostly Cloudy
7:27 AM 35.1 °F - 33.1 °F 92% 30.16 in 2.5 mi Calm Calm - N/A   Mostly Cloudy
7:45 AM 35.1 °F - 34.0 °F 96% 30.17 in 3.0 mi Calm Calm - N/A   Overcast
7:53 AM 36.0 °F - 35.1 °F 97% 30.17 in 2.5 mi Calm Calm - N/A   Overcast
8:04 AM 37.0 °F - 36.0 °F 96% 30.17 in 3.0 mi Calm Calm - N/A   Overcast
8:53 AM 41.0 °F - 39.9 °F 96% 30.17 in 6.0 mi Calm Calm - N/A   Mostly Cloudy
9:53 AM 45.0 °F 42.6 °F 41.0 °F 86% 30.19 in 9.0 mi SSW 4.6 mph - N/A   Overcast
10:53 AM 48.9 °F - 43.0 °F 80% 30.16 in 10.0 mi SSW 8.1 mph - N/A   Overcast
11:53 AM 53.1 °F - 44.1 °F 71% 30.15 in 10.0 mi WSW 9.2 mph - N/A   Overcast
12:53 PM 57.9 °F - 44.1 °F 60% 30.12 in 10.0 mi SW 10.4 mph - N/A   Partly Cloudy
1:53 PM 61.0 °F - 43.0 °F 52% 30.07 in 10.0 mi SW 11.5 mph - N/A   Scattered Clouds
2:53 PM 63.0 °F - 39.9 °F 43% 30.03 in 10.0 mi WSW 6.9 mph - N/A   Scattered Clouds
3:53 PM 63.0 °F - 39.9 °F 43% 30.01 in 10.0 mi SSW 11.5 mph - N/A   Clear
4:53 PM 64.0 °F - 39.0 °F 40% 29.99 in 10.0 mi SW 8.1 mph - N/A   Clear
5:53 PM 60.1 °F - 41.0 °F 49% 30.02 in 10.0 mi SW 6.9 mph - N/A   Clear
6:53 PM 55.0 °F - 41.0 °F 59% 30.05 in 10.0 mi WSW 5.8 mph - N/A   Clear
7:53 PM 54.0 °F - 39.9 °F 59% 30.07 in 10.0 mi SW 4.6 mph - N/A   Clear
8:53 PM 50.0 °F - 41.0 °F 71% 30.09 in 10.0 mi SW 3.5 mph - N/A   Clear
9:53 PM 50.0 °F - 41.0 °F 71% 30.09 in 10.0 mi SSW 4.6 mph - N/A   Clear
10:53 PM 46.0 °F - 39.9 °F 79% 30.09 in 10.0 mi Calm Calm - N/A   Clear
11:53 PM 42.1 °F - 39.0 °F 89% 30.07 in 10.0 mi Calm Calm - N/A   Clear